Regional Weather Roundup
Issued by NWS

Home | Current Version | Previous Version | Graphics & Text | Print | Product List | Glossary On
Versions: 1 2 3 4 5 6 7 8 9 10 11 12 13 14 15 16 17 18 19 20 21 22 23 24 25 26 27 28 29 30 31 32 33 34 35 36 37 38 39 40 41 42 43 44 45 46 47 48 49 50
000
ASUS43 KFSD 261410
RWRSD

WEATHER ROUNDUP FOR SOUTH DAKOTA
NATIONAL WEATHER SERVICE SIOUX FALLS SD
900 AM CDT THU APR 26 2018

NOTE: "FAIR" INDICATES FEW OR NO CLOUDS BELOW 12,000 FEET WITH NO
SIGNIFICANT WEATHER AND/OR OBSTRUCTIONS TO VISIBILITY.


SDZ001>005-009-010-012>017-261500-
NORTHWEST AND NORTH CENTRAL SOUTH DAKOTA

CITY           SKY/WX    TMP DP  RH WIND       PRES   REMARKS
BUFFALO          N/A     49  31  49 NW13      30.15R
MOBRIDGE       SUNNY     46  33  60 NW8       30.12R
$$

SDZ012>016-024>037-041>051-057-063-072>074-261500-
SOUTHWEST AND SOUTH CENTRAL SOUTH DAKOTA

CITY           SKY/WX    TMP DP  RH WIND       PRES   REMARKS
RAPID CTY ARPT SUNNY     49  33  54 N21       30.22R
PIERRE         SUNNY     48  32  53 N17       30.12R
CUSTER         SUNNY     42  27  55 NW8       30.22R
ELLSWORTH AFB  SUNNY     48  33  54 NW18      30.21R
PHILIP         SUNNY     49  34  56 N18       30.18R
PINE RIDGE     SUNNY     48  34  58 N15G23    30.21R
SPEARFISH      CLOUDY    46  32  57 NW13      30.25R
WINNER         FAIR      49  31  49 N18       30.10R
$$

SDZ004>011-016>023-039-040-261500-
NORTHEAST SOUTH DAKOTA

CITY           SKY/WX    TMP DP  RH WIND       PRES   REMARKS
ABERDEEN       SUNNY     50  31  48 N18G26    30.07R
WATERTOWN      SUNNY     48  33  56 N29G36    29.96R
BROOKINGS      MOSUNNY   47  36  65 N18G25    29.93R
SISSETON         N/A     49  34  56 N21G29    30.00R
$$

SDZ017-020-022-023-036>040-048>070-261500-
SOUTHEAST SOUTH DAKOTA

CITY           SKY/WX    TMP DP  RH WIND       PRES   REMARKS
SIOUX FALLS    PTSUNNY   48  35  60 W9        29.91R
HURON          SUNNY     48  34  58 N22G29    30.02R
CHAMBERLAIN    SUNNY     50  33  51 N18G28    30.07R
MITCHELL       PTSUNNY   48  36  63 N22G39    29.98R
YANKTON        PTSUNNY   50  37  61 W16       29.92R
$$

ABBREVIATIONS USED IN REMARKS
   TC - TEMPERATURE IN CELSIUS
  WCI - WIND CHILL INDEX
   HX - HEAT INDEX
  VSB - VISIBILITY





USA.gov is the U.S. government's official web portal to all federal, state and local government web resources and services.